• In Latvia
  • List of Countries
  • For 7 days
  • Water Temperature
  • Satellite Maps
  • Weather Map
  • Weather Widgets
  • user-avatar
    Login

    Hourly Weather Kitzbuhel

    Today, 3 December, Saturday

    Time Temperature Precipitation Wind Pressure Humidity
    00:00 -3°C° 0 mm 1 mps 676 mmHg 96%
    01:00 -2°C° 0 mm 1 mps 676 mmHg 96%
    02:00 -3°C° 0 mm 1 mps 676 mmHg 96%
    03:00 -3°C° 0 mm 1 mps 676 mmHg 97%
    04:00 -4°C° 0 mm 1 mps 676 mmHg 97%
    05:00 -4°C° 0 mm 1 mps 676 mmHg 97%
    06:00 -6°C° 0 mm 1 mps 676 mmHg 97%
    07:00 -6°C° 0 mm 1 mps 676 mmHg 97%
    08:00 -3°C° 0 mm 1 mps 676 mmHg 93%
    09:00 -1°C° 0 mm 1 mps 677 mmHg 88%
    10:00 +1°C° 0 mm 1 mps 678 mmHg 84%
    11:00 +2°C° 0 mm 1 mps 678 mmHg 81%
    12:00 +3°C° 0 mm 1 mps 678 mmHg 79%
    13:00 +2°C° 0 mm 2 mps 678 mmHg 75%
    14:00 +1°C° 0 mm 1 mps 678 mmHg 81%
    15:00 0°C° 0 mm 1 mps 677 mmHg 86%
    16:00 -2°C° 0 mm 1 mps 677 mmHg 92%
    17:00 -2°C° 0 mm 1 mps 677 mmHg 92%
    18:00 -3°C° 0 mm 1 mps 678 mmHg 92%
    19:00 -3°C° 0 mm 1 mps 678 mmHg 92%
    20:00 -5°C° 0 mm 2 mps 678 mmHg 90%
    21:00 -5°C° 0 mm 2 mps 678 mmHg 89%
    22:00 -5°C° 0 mm 2 mps 678 mmHg 88%
    23:00 -5°C° 0 mm 2 mps 679 mmHg 88%

    Tomorrow, 4 December, Sunday

    Time Temperature Precipitation Wind Pressure Humidity
    00:00 -5°C° 0 mm 2 mps 679 mmHg 87%
    01:00 -5°C° 0 mm 2 mps 679 mmHg 87%
    02:00 -5°C° 0 mm 2 mps 679 mmHg 87%
    03:00 -5°C° 0 mm 2 mps 679 mmHg 87%
    04:00 -5°C° 0 mm 2 mps 679 mmHg 87%
    05:00 -5°C° 0 mm 2 mps 679 mmHg 87%
    06:00 -5°C° 0 mm 2 mps 679 mmHg 87%
    07:00 -5°C° 0 mm 2 mps 679 mmHg 87%
    08:00 -2°C° 0 mm 1 mps 680 mmHg 83%
    09:00 0°C° 0 mm 1 mps 680 mmHg 79%
    10:00 +2°C° 0 mm 1 mps 681 mmHg 74%
    11:00 +3°C° 0 mm 1 mps 681 mmHg 73%
    12:00 +4°C° 0 mm 1 mps 681 mmHg 73%
    13:00 +5°C° 0 mm 1 mps 681 mmHg 72%
    14:00 +3°C° 0 mm 1 mps 680 mmHg 78%
    15:00 +1°C° 0 mm 1 mps 680 mmHg 84%
    16:00 -1°C° 0 mm 1 mps 680 mmHg 91%
    17:00 -1°C° 0 mm 1 mps 680 mmHg 91%
    18:00 -2°C° 0 mm 1 mps 680 mmHg 91%
    19:00 -2°C° 0 mm 1 mps 680 mmHg 91%
    20:00 -2°C° 0 mm 1 mps 681 mmHg 90%
    21:00 -4°C° 0 mm 2 mps 681 mmHg 89%
    22:00 -4°C° 0 mm 2 mps 681 mmHg 88%
    23:00 -4°C° 0 mm 2 mps 681 mmHg 88%

    Day after tomorrow, 5 December, Monday

    Time Temperature Precipitation Wind Pressure Humidity
    00:00 -4°C° 0 mm 2 mps 681 mmHg 87%
    01:00 -4°C° 0 mm 2 mps 681 mmHg 87%
    02:00 -4°C° 0 mm 2 mps 681 mmHg 87%
    03:00 -4°C° 0 mm 2 mps 681 mmHg 87%
    04:00 -2°C° 0 mm 1 mps 681 mmHg 87%
    05:00 -2°C° 0 mm 1 mps 681 mmHg 87%
    06:00 -3°C° 0 mm 1 mps 680 mmHg 87%
    07:00 -3°C° 0 mm 1 mps 680 mmHg 87%
    08:00 -1°C° 0 mm 1 mps 681 mmHg 82%
    09:00 +1°C° 0 mm 1 mps 682 mmHg 77%
    10:00 +3°C° 0 mm 1 mps 682 mmHg 72%
    11:00 +4°C° 0 mm 1 mps 682 mmHg 70%
    12:00 +5°C° 0 mm 1 mps 682 mmHg 69%
    13:00 +5°C° 0 mm 0 mps 682 mmHg 68%
    14:00 +2°C° 0 mm 0 mps 681 mmHg 75%
    15:00 0°C° 0 mm 0 mps 680 mmHg 83%
    16:00 -3°C° 0 mm 0 mps 679 mmHg 90%
    17:00 -4°C° 0 mm 0 mps 680 mmHg 90%
    18:00 -3°C° 0 mm 1 mps 680 mmHg 89%
    19:00 -3°C° 0 mm 1 mps 680 mmHg 88%
    20:00 -3°C° 0 mm 1 mps 680 mmHg 86%
    21:00 -3°C° 0 mm 1 mps 680 mmHg 83%
    22:00 -3°C° 0 mm 1 mps 680 mmHg 81%
    23:00 -3°C° 0 mm 1 mps 681 mmHg 78%

    6 December, Tuesday

    Time Temperature Precipitation Wind Pressure Humidity
    00:00 -3°C° 0 mm 1 mps 681 mmHg 75%
    01:00 -3°C° 0 mm 1 mps 681 mmHg 73%
    02:00 -3°C° 0 mm 1 mps 681 mmHg 71%
    03:00 -2°C° 0 mm 1 mps 681 mmHg 68%
    04:00 -2°C° 0 mm 1 mps 681 mmHg 66%
    05:00 -2°C° 0 mm 1 mps 681 mmHg 65%
    06:00 -4°C° 0 mm 2 mps 681 mmHg 64%
    07:00 -3°C° 0 mm 2 mps 682 mmHg 63%
    08:00 0°C° 0 mm 1 mps 682 mmHg 62%
    09:00 +2°C° 0 mm 1 mps 683 mmHg 61%
    10:00 +3°C° 0 mm 1 mps 683 mmHg 60%
    11:00 +4°C° 0 mm 1 mps 683 mmHg 61%
    12:00 +5°C° 0 mm 1 mps 683 mmHg 62%
    13:00 +6°C° 0 mm 1 mps 683 mmHg 63%
    14:00 +4°C° 0 mm 1 mps 683 mmHg 69%
    15:00 +2°C° 0 mm 1 mps 682 mmHg 75%
    16:00 0°C° 0 mm 1 mps 682 mmHg 82%
    17:00 0°C° 0 mm 1 mps 682 mmHg 81%
    18:00 -1°C° 0 mm 1 mps 682 mmHg 81%
    19:00 -1°C° 0 mm 1 mps 682 mmHg 81%
    20:00 -1°C° 0 mm 1 mps 682 mmHg 80%
    21:00 -2°C° 0 mm 1 mps 683 mmHg 80%
    22:00 -2°C° 0 mm 1 mps 683 mmHg 80%
    23:00 -2°C° 0 mm 1 mps 683 mmHg 80%

    7 December, Wednesday

    Time Temperature Precipitation Wind Pressure Humidity
    00:00 -2°C° 0 mm 1 mps 683 mmHg 80%
    01:00 -2°C° 0 mm 1 mps 683 mmHg 80%
    02:00 -2°C° 0 mm 1 mps 683 mmHg 80%
    03:00 -2°C° 0 mm 1 mps 683 mmHg 80%
    04:00 -2°C° 0 mm 1 mps 683 mmHg 80%
    05:00 -2°C° 0 mm 1 mps 683 mmHg 80%
    06:00 -3°C° 0 mm 1 mps 683 mmHg 79%
    07:00 -3°C° 0 mm 1 mps 684 mmHg 79%
    08:00 -1°C° 0 mm 1 mps 684 mmHg 73%
    09:00 +1°C° 0 mm 1 mps 685 mmHg 67%
    10:00 +3°C° 0 mm 1 mps 686 mmHg 61%
    11:00 +4°C° 0 mm 1 mps 686 mmHg 61%
    12:00 +5°C° 0 mm 1 mps 686 mmHg 60%
    13:00 +5°C° 0 mm 0 mps 686 mmHg 60%
    14:00 +3°C° 0 mm 0 mps 685 mmHg 64%
    15:00 0°C° 0 mm 0 mps 684 mmHg 67%
    16:00 -3°C° 0 mm 0 mps 683 mmHg 71%
    17:00 -2°C° 0 mm 1 mps 683 mmHg 68%
    18:00 -3°C° 0 mm 1 mps 684 mmHg 65%
    19:00 -3°C° 0 mm 1 mps 684 mmHg 62%
    20:00 -3°C° 0 mm 1 mps 684 mmHg 61%
    21:00 -3°C° 0 mm 1 mps 684 mmHg 59%
    22:00 -3°C° 0 mm 1 mps 684 mmHg 58%
    23:00 -2°C° 0 mm 1 mps 684 mmHg 56%

    8 December, Thursday

    Time Temperature Precipitation Wind Pressure Humidity
    00:00 -2°C° 0 mm 1 mps 684 mmHg 54%
    01:00 -4°C° 0 mm 2 mps 684 mmHg 51%
    02:00 -2°C° 0 mm 1 mps 684 mmHg 50%
    03:00 -2°C° 0 mm 1 mps 684 mmHg 48%
    04:00 -2°C° 0 mm 1 mps 684 mmHg 47%
    05:00 -2°C° 0 mm 1 mps 684 mmHg 45%
    06:00 -2°C° 0 mm 1 mps 684 mmHg 43%
    07:00 -2°C° 0 mm 1 mps 683 mmHg 41%
    08:00 +1°C° 0 mm 1 mps 684 mmHg 43%
    09:00 +3°C° 0 mm 1 mps 685 mmHg 45%
    10:00 +5°C° 0 mm 1 mps 686 mmHg 46%
    11:00 +6°C° 0 mm 1 mps 685 mmHg 48%
    12:00 +7°C° 0 mm 1 mps 685 mmHg 49%
    13:00 +8°C° 0 mm 1 mps 685 mmHg 50%
    14:00 +6°C° 0 mm 1 mps 684 mmHg 48%
    15:00 +5°C° 0 mm 1 mps 683 mmHg 46%
    16:00 +3°C° 0 mm 1 mps 683 mmHg 44%
    17:00 +3°C° 0 mm 1 mps 683 mmHg 44%
    18:00 +4°C° 0 mm 1 mps 684 mmHg 44%
    19:00 +3°C° 0 mm 2 mps 684 mmHg 44%
    20:00 +3°C° 0.1 mm 2 mps 684 mmHg 47%
    21:00 +3°C° 0.1 mm 2 mps 684 mmHg 50%
    22:00 +4°C° 0.1 mm 2 mps 685 mmHg 53%
    23:00 +3°C° 0 mm 2 mps 684 mmHg 56%
    Show more